Location: Toronto
(43.6667°N, 79.4167°W)
Time: 11:27:19
(UTC-04:00)

X-37B - Pass Details

Date: 25 June 2021
Orbit: 383 x 392 km, 45.0° (Epoch: 01 July)

Event Time Altitude Azimuth Distance (km) Brightness Sun altitude
Rises 22:19:00 0° 251° (WSW) 2,251 4.8 -11.1°
Reaches altitude 10° 22:21:04 10° 250° (WSW) 1,399 3.7 -11.4°
Maximum altitude 22:24:12 78° 165° (SSE) 395 0.4 -11.7°
Drops below altitude 10° 22:27:22 10° 77° (ENE) 1,402 3.1 -12.1°
Enters shadow 22:28:36 - 77° (ENE) 1,911 3.8 -12.2°
